Wind_Speed
6 7 9 10 12 12 13 13 12 12 11 10 10 11 11 9 8 8 7 5 5 9 26 24 12 12 13 14 13 11 9 7 7 7 7 8 8 7 6 7 9 12 13
6 6 8 10 12 12 12 13 12 10 10 10 10 10 10 7 5 4 3 4 4 6 6 13 11 9 9 10 11 10 8 5 7 8 7 6 7 8 8 8 9 10 13
7 6 8 10 11 12 13 13 12 11 10 11 10 11 8 5 4 3 3 1 3 5 7 9 11 9 8 9 10 10 10 8 6 6 6 6 6 7 7 8 9 10 14
8 8 9 10 11 12 13 13 13 11 10 10 10 10 6 4 3 3 4 5 6 7 8 10 11 12 11 11 11 11 10 9 7 6 6 6 6 8 9 8 7 8 15
10 10 11 12 12 13 14 14 13 11 11 10 9 7 6 3 4 4 5 7 8 9 9 9 11 13 13 12 12 12 11 10 9 10 10 10 10 10 11 11 8 8 12
10 10 11 13 14 14 15 15 13 12 11 10 8 5 4 3 4 3 3 7 11 11 10 11 13 13 13 12 12 13 13 11 11 13 15 16 15 13 12 12 9 7 9
10 11 13 14 14 14 15 16 13 12 11 9 8 6 6 7 7 6 5 9 15 16 14 14 15 15 15 15 14 14 13 12 11 10 11 14 15 13 11 10 11 8 9
10 10 13 15 17 17 17 17 14 13 11 11 10 9 9 8 7 7 7 8 13 17 17 17 18 16 17 17 17 17 17 13 10 9 8 8 11 12 12 13 10 9 8
10 11 14 17 18 19 19 19 16 14 13 13 13 11 11 10 9 8 7 8 11 13 14 16 17 16 15 15 17 18 16 14 12 11 11 11 13 14 14 12 11 10 10
12 13 16 19 18 18 19 20 18 17 17 15 14 13 12 11 10 8 7 8 9 12 14 15 18 18 17 16 16 18 17 17 14 13 12 13 16 16 16 14 12 12 12
14 16 20 21 19 17 19 20 20 18 17 15 15 15 14 11 8 7 7 9 9 11 15 16 17 18 17 18 19 19 18 17 16 14 13 13 15 18 17 16 15 14 13
17 20 23 22 18 16 17 20 20 19 17 16 15 15 15 10 7 6 7 10 10 11 12 14 16 20 19 18 19 19 19 18 16 15 14 13 13 15 17 17 17 16 15
20 22 22 19 15 13 13 21 21 19 20 17 16 15 13 10 7 5 7 10 9 9 8 8 10 17 20 19 18 17 17 16 16 14 13 13 13 15 18 17 17 16 15
22 22 19 19 17 17 16 25 24 22 20 18 16 14 10 9 8 7 6 9 8 7 6 8 8 11 13 19 19 15 16 15 15 15 14 14 15 16 19 20 18 17 16
25 25 19 17 14 17 17 20 22 24 20 17 14 13 9 8 11 9 9 9 9 8 6 8 8 10 10 14 15 15 16 16 16 16 15 15 15 15 17 20 19 17 17
27 25 21 19 22 17 12 17 24 25 20 18 18 14 10 9 12 11 9 11 11 9 9 10 9 7 8 10 11 13 12 13 15 15 16 16 15 14 14 15 16 17 18
22 24 25 19 22 19 14 23 23 22 18 17 19 16 11 10 12 12 11 12 13 12 9 11 10 7 7 10 11 12 11 10 12 14 15 16 16 15 15 14 14 15 15
22 21 21 20 25 26 24 22 18 19 16 17 16 17 12 11 13 13 13 14 15 13 11 13 13 9 8 7 6 8 10 11 12 12 13 14 16 15 15 15 14 13 13
28 23 20 21 26 26 20 19 18 15 15 14 13 15 13 12 15 16 15 15 14 12 14 15 12 11 12 8 2 4 6 9 11 12 12 13 15 16 16 15 16 15 14
31 25 24 22 20 18 16 20 22 19 20 12 13 15 14 15 19 19 17 15 16 16 16 16 14 14 15 10 4 4 5 5 7 9 12 12 14 16 16 17 17 17 17
30 25 22 21 17 16 18 20 19 21 19 15 20 21 18 17 21 24 20 16 17 16 19 19 16 17 14 10 9 8 6 4 4 5 7 10 13 15 15 15 16 17 16
29 27 23 20 19 19 21 22 24 23 21 21 23 23 19 19 22 28 25 21 20 20 18 21 20 18 15 11 11 12 9 7 6 7 7 8 11 13 13 13 14 15 16
26 24 22 21 23 24 25 25 25 22 23 24 23 25 23 21 24 26 24 24 24 21 22 19 20 17 17 15 14 15 16 13 11 11 11 10 11 12 10 11 13 15 16
23 22 22 24 26 26 25 23 20 19 22 23 23 21 24 24 26 23 25 25 25 22 23 24 23 21 20 18 17 17 16 14 14 14 14 12 13 13 11 12 13 13 15
23 24 26 28 28 26 23 21 19 20 21 21 20 20 22 23 22 24 26 26 26 27 27 29 27 23 20 18 18 17 16 15 15 15 16 15 14 14 13 12 13 13 13
26 26 27 26 25 24 24 22 21 22 22 20 22 25 24 23 22 26 30 29 30 28 29 28 25 24 20 20 21 18 18 16 16 17 19 18 16 16 16 14 15 15 14
Wind_Direction
10 347 345 341 339 336 336 333 325 323 324 322 323 328 333 334 337 346 13 52 126 203 215 215 215 217 217 217 214 221 229 239 224 201 216 220 224 213 197 209 210 216 210
13 340 339 341 336 333 330 328 325 322 321 320 321 323 324 320 322 335 0 57 78 102 162 196 199 198 203 205 213 224 231 222 212 204 206 210 220 219 208 203 206 219 208
17 350 343 342 340 331 327 322 318 321 322 324 319 322 320 308 297 302 299 230 169 162 168 189 202 203 207 215 218 219 218 212 212 217 219 219 233 234 217 213 219 230 201
19 6 354 345 338 332 325 320 315 317 317 323 324 332 331 308 288 267 249 235 198 181 187 205 211 211 210 214 214 212 212 215 219 223 233 236 245 246 235 219 221 204 199
9 4 358 356 343 331 324 314 309 305 308 317 323 338 348 302 279 264 240 222 207 199 198 208 215 214 211 208 204 205 210 221 237 249 252 246 253 260 252 222 214 201 203
6 360 354 355 346 333 321 312 301 295 299 309 317 321 341 314 276 283 250 231 220 214 211 212 217 218 214 212 206 209 219 228 246 257 259 254 250 253 252 213 189 196 195
4 3 355 350 336 322 317 308 296 285 287 300 310 305 301 297 268 255 255 239 229 226 229 228 225 217 214 212 216 226 237 243 253 263 261 249 239 234 219 200 172 187 184
2 352 343 340 328 320 313 307 298 286 286 293 300 298 301 295 279 262 270 240 222 222 229 234 229 217 213 213 219 230 239 244 258 260 245 220 207 204 188 174 180 183 178
353 341 335 333 324 319 314 308 302 294 293 292 298 304 307 301 285 271 263 235 212 215 222 220 221 221 218 218 225 234 243 251 254 248 234 214 205 198 182 184 193 189 187
343 331 328 323 314 317 313 310 305 298 295 293 298 307 314 311 292 265 253 232 211 216 217 227 231 229 229 232 238 242 245 250 250 246 232 219 209 205 204 199 198 192 188
337 330 327 318 310 315 313 311 309 305 299 293 293 302 312 314 293 259 235 227 223 228 226 237 240 240 239 238 245 248 250 255 253 247 229 219 208 209 211 208 201 190 183
337 326 325 314 310 318 315 308 308 306 301 290 285 289 301 310 292 254 231 218 222 232 233 231 231 237 238 238 243 248 250 251 249 240 223 215 208 207 208 210 204 194 187
333 326 321 316 310 307 318 315 304 304 299 290 279 277 291 297 279 240 227 218 225 230 237 235 231 239 241 237 235 240 244 242 239 231 219 216 214 211 209 212 209 201 198
330 331 322 317 317 302 314 326 309 308 302 290 278 266 269 271 259 239 237 226 224 233 242 242 235 242 241 237 237 238 236 228 228 223 212 212 213 212 211 212 215 213 213
332 338 328 324 306 297 305 320 306 303 307 298 278 262 252 250 248 246 240 223 216 218 222 225 233 250 243 235 237 243 236 225 229 223 214 210 212 213 214 213 214 217 224
330 332 325 311 298 289 305 327 312 300 304 297 283 270 252 238 240 246 242 224 211 208 215 217 213 242 259 232 230 239 232 222 222 216 211 208 208 211 213 216 217 221 230
333 315 323 288 286 285 306 327 314 292 289 284 278 271 256 236 237 242 238 218 212 209 219 218 224 236 248 244 229 228 220 211 209 213 211 208 207 207 209 213 216 223 229
332 308 300 270 275 281 302 322 310 286 288 285 273 266 249 234 241 239 237 226 209 199 214 212 219 229 225 252 231 219 209 207 205 205 208 209 213 213 212 215 219 222 223
328 317 295 282 285 291 294 294 309 293 296 281 270 261 238 226 238 236 234 233 211 200 204 211 220 233 224 242 242 201 177 204 204 202 201 206 214 220 220 222 224 222 219
326 321 305 295 289 291 304 301 301 288 279 268 261 267 243 235 238 234 228 227 216 200 206 211 212 225 226 225 223 204 165 187 197 202 200 202 209 216 220 222 224 226 228
320 319 306 295 290 287 295 298 285 291 275 258 247 264 253 243 238 229 228 219 211 208 210 206 212 226 233 227 237 248 231 224 223 209 203 207 213 220 223 225 229 235 237
315 314 309 293 287 292 294 289 285 291 288 284 262 254 249 238 234 227 222 223 221 228 216 202 213 231 235 235 239 237 247 244 245 246 237 229 227 228 228 232 236 239 234
308 306 303 292 286 291 292 285 286 282 281 278 270 251 240 234 233 225 226 223 220 216 215 211 227 237 238 240 238 248 259 249 254 243 247 245 242 238 232 239 241 239 234
303 301 300 296 294 295 293 289 286 283 286 278 264 251 239 233 227 224 224 222 218 221 233 230 223 231 237 242 247 250 248 249 254 247 242 239 241 246 238 241 245 240 236
293 294 295 294 291 290 291 291 293 293 295 283 253 241 242 231 226 228 229 226 226 230 233 230 232 241 239 251 249 245 240 245 250 248 242 237 238 247 254 251 247 241 241
297 295 293 291 287 283 280 282 287 288 293 281 251 232 227 227 233 231 222 217 222 226 223 221 229 242 240 242 248 247 241 243 252 249 247 247 247 247 248 252 255 254 251
Height
5892 5891 5890 5889 5888 5887 5886 5885 5884 5884 5882 5881 5879 5878 5877 5876 5875 5873 5872 5870 5870 5871 5871 5874 5876 5878 5879 5880 5881 5883 5885 5886 5888 5889 5889 5889 5890 5890 5890 5890 5890 5891 5892
5891 5890 5890 5889 5888 5886 5885 5884 5883 5882 5881 5880 5878 5877 5877 5875 5874 5873 5872 5871 5871 5871 5872 5874 5876 5878 5879 5880 5881 5882 5884 5886 5887 5889 5889 5889 5890 5890 5889 5889 5889 5890 5891
5890 5890 5890 5889 5887 5886 5885 5884 5882 5881 5880 5879 5877 5876 5875 5874 5873 5872 5872 5872 5872 5871 5872 5874 5876 5877 5879 5880 5880 5882 5884 5884 5886 5888 5889 5889 5890 5890 5889 5887 5888 5889 5890
5890 5890 5890 5888 5887 5885 5884 5883 5882 5881 5880 5878 5877 5875 5875 5874 5873 5872 5872 5872 5872 5873 5874 5875 5876 5877 5878 5879 5880 5882 5883 5884 5885 5887 5888 5889 5890 5890 5889 5887 5887 5888 5890
5889 5888 5889 5887 5886 5884 5883 5881 5880 5879 5878 5878 5876 5875 5874 5873 5872 5871 5871 5872 5872 5873 5874 5875 5876 5878 5879 5879 5880 5881 5882 5883 5884 5886 5886 5888 5889 5889 5888 5887 5887 5888 5889
5888 5887 5887 5885 5884 5883 5881 5879 5878 5878 5877 5876 5875 5874 5873 5872 5871 5870 5870 5871 5872 5873 5874 5875 5876 5876 5878 5879 5879 5880 5881 5882 5883 5884 5884 5886 5888 5888 5886 5886 5887 5887 5889
5886 5886 5885 5883 5882 5881 5879 5877 5876 5875 5874 5874 5873 5872 5872 5871 5870 5869 5869 5869 5870 5871 5873 5874 5874 5875 5876 5877 5879 5880 5880 5880 5881 5882 5881 5883 5885 5886 5885 5886 5887 5888 5889
5884 5884 5883 5882 5880 5879 5877 5874 5873 5872 5872 5872 5871 5871 5870 5869 5868 5867 5867 5866 5866 5867 5869 5870 5872 5874 5875 5876 5878 5878 5879 5879 5880 5880 5881 5882 5883 5885 5885 5886 5888 5889 5890
5882 5882 5881 5879 5878 5876 5874 5872 5870 5869 5869 5869 5869 5868 5867 5866 5866 5864 5864 5863 5863 5864 5865 5868 5870 5872 5874 5875 5875 5876 5877 5878 5880 5880 5881 5882 5884 5885 5885 5886 5888 5889 5891
5880 5879 5878 5877 5875 5874 5871 5869 5868 5867 5867 5866 5866 5865 5864 5862 5861 5861 5861 5861 5862 5863 5864 5866 5867 5870 5872 5873 5873 5874 5875 5876 5878 5879 5880 5881 5882 5883 5885 5886 5888 5889 5891
5877 5875 5874 5874 5872 5871 5869 5866 5865 5864 5864 5863 5863 5863 5861 5859 5858 5858 5859 5860 5861 5862 5862 5863 5865 5867 5869 5870 5871 5873 5873 5873 5874 5876 5878 5880 5881 5882 5884 5885 5887 5888 5890
5875 5872 5871 5869 5869 5869 5867 5864 5861 5860 5860 5859 5859 5860 5859 5857 5855 5856 5857 5857 5858 5859 5860 5860 5862 5863 5865 5866 5867 5870 5871 5871 5872 5873 5875 5877 5879 5880 5882 5884 5885 5887 5890
5874 5870 5868 5866 5866 5866 5863 5861 5857 5855 5856 5854 5854 5856 5857 5856 5854 5854 5854 5855 5856 5857 5857 5857 5859 5859 5861 5863 5864 5867 5868 5870 5870 5871 5872 5874 5877 5878 5880 5882 5884 5886 5889
5873 5869 5866 5863 5861 5861 5860 5858 5855 5852 5851 5849 5849 5851 5853 5854 5853 5852 5853 5853 5854 5855 5855 5855 5856 5856 5859 5860 5861 5863 5865 5868 5869 5869 5871 5873 5875 5876 5878 5880 5882 5885 5887
5869 5865 5861 5859 5857 5856 5856 5855 5852 5850 5848 5846 5846 5847 5848 5850 5850 5851 5851 5851 5851 5852 5853 5852 5854 5855 5857 5859 5859 5860 5862 5865 5867 5868 5869 5871 5873 5875 5877 5879 5881 5882 5884
5863 5860 5857 5855 5853 5851 5850 5850 5847 5844 5845 5846 5844 5844 5844 5847 5847 5849 5851 5849 5847 5849 5850 5851 5854 5855 5856 5856 5857 5858 5860 5861 5863 5865 5866 5869 5870 5872 5874 5876 5878 5880 5883
5859 5854 5853 5852 5849 5848 5847 5845 5845 5841 5840 5841 5840 5839 5842 5844 5845 5847 5848 5846 5847 5849 5850 5851 5854 5855 5855 5856 5856 5857 5858 5858 5860 5863 5865 5867 5868 5870 5872 5874 5876 5878 5880
5855 5852 5851 5848 5844 5843 5842 5841 5843 5840 5838 5839 5836 5834 5839 5840 5841 5844 5845 5845 5846 5848 5849 5849 5852 5853 5854 5854 5854 5855 5856 5857 5858 5861 5863 5866 5868 5868 5870 5872 5874 5876 5878
5850 5849 5846 5843 5840 5839 5838 5838 5838 5836 5833 5833 5832 5832 5834 5836 5837 5840 5843 5843 5844 5846 5847 5848 5849 5852 5853 5853 5854 5854 5855 5856 5857 5859 5861 5863 5866 5867 5869 5871 5873 5874 5876
5845 5843 5840 5838 5837 5836 5834 5832 5831 5832 5831 5829 5829 5830 5831 5832 5833 5833 5839 5841 5842 5844 5845 5846 5848 5851 5851 5851 5853 5855 5856 5856 5856 5858 5860 5862 5863 5865 5867 5868 5870 5872 5874
5839 5838 5837 5834 5833 5832 5831 5829 5828 5827 5827 5826 5825 5825 5826 5828 5829 5829 5833 5839 5840 5842 5842 5844 5847 5848 5848 5849 5851 5854 5856 5856 5856 5857 5859 5860 5861 5863 5864 5865 5867 5869 5871
5834 5833 5831 5829 5828 5828 5827 5826 5824 5821 5821 5821 5820 5820 5820 5823 5824 5823 5829 5834 5836 5838 5839 5840 5845 5845 5846 5847 5848 5851 5854 5856 5855 5856 5857 5858 5860 5860 5862 5863 5864 5865 5867
5830 5829 5827 5825 5824 5824 5824 5822 5819 5817 5815 5814 5813 5813 5815 5817 5818 5820 5823 5828 5832 5834 5835 5836 5838 5840 5843 5845 5847 5849 5849 5851 5854 5856 5856 5858 5858 5858 5859 5860 5861 5862 5864
5825 5823 5822 5821 5819 5818 5817 5816 5815 5813 5811 5808 5807 5807 5808 5812 5812 5814 5817 5821 5826 5829 5830 5832 5835 5838 5840 5842 5844 5847 5848 5849 5851 5853 5855 5857 5856 5856 5858 5859 5859 5860 5861
5821 5820 5818 5815 5813 5811 5810 5810 5810 5808 5806 5804 5802 5803 5806 5807 5808 5810 5812 5815 5819 5822 5824 5827 5831 5834 5836 5838 5839 5842 5844 5846 5847 5848 5850 5853 5854 5853 5853 5855 5855 5856 5857
5815 5814 5812 5809 5807 5805 5805 5805 5805 5804 5802 5800 5798 5798 5801 5803 5805 5806 5809 5811 5814 5816 5818 5821 5824 5829 5832 5834 5836 5838 5839 5842 5844 5844 5846 5848 5850 5849 5849 5850 5851 5852 5853